Weather Roundup
Issued by NWS Corpus Christi, TX

Home | Current Version | Previous Version | Text Only | Print | Product List | Glossary On
Versions: 1 2 3 4 5 6 7 8 9 10 11 12 13 14 15 16 17 18 19 20 21 22 23 24 25 26 27 28 29 30 31 32 33 34 35 36 37 38 39 40 41 42 43 44 45 46 47 48 49 50
000
ASUS44 KCRP 310210
HRRCRP

SOUTH TEXAS REGIONAL WEATHER ROUNDUP
NATIONAL WEATHER SERVICE CORPUS CHRISTI TX
900 PM CDT MON MAY 30 2016


TXZ229>244-310300-
...CORPUS CHRISTI AREA OBSERVATIONS...

CITY           SKY/WX    TMP DP  RH WIND       PRES   REMARKS
CORPUS CHRISTI CLOUDY    81  75  82 SE9       29.91R
NAS CORPUS CHR MOCLDY    81  76  84 SE14      29.91R
ROCKPORT       CLOUDY    81  73  76 SE10      29.91S
KINGSVILLE NAS CLOUDY    80  76  87 SE8       29.89R
ALICE          CLOUDY    80  74  81 SE7       29.89R
FALFURRIAS     MOCLDY    83  72  69 S7        29.89R
$$

...VICTORIA AREA OBSERVATIONS...

CITY           SKY/WX    TMP DP  RH WIND       PRES   REMARKS
VICTORIA       CLOUDY    78  73  84 SE9       29.91S
BEEVILLE       FAIR      80  76  87 SE9       29.89F
PLEASANTON     MOCLDY    79  70  72 E3        29.88F
SAN ANTONIO    MOCLDY    78  68  71 SE8       29.90S
$$

...LAREDO AREA OBSERVATIONS...

CITY           SKY/WX    TMP DP  RH WIND       PRES   REMARKS
LAREDO         CLOUDY    85  72  65 E9        29.88F HX  91
COTULLA        CLOUDY    82  71  69 E3        29.88S
DEL RIO        MOCLDY    78  66  66 S7        29.87F
MCALLEN        CLOUDY    83  75  77 SE9       29.91R HX  90
HEBBRONVILLE   MOCLDY    81  71  73 SW5       29.93R
$$

...OTHER TEXAS OBSERVATIONS...

CITY           SKY/WX    TMP DP  RH WIND       PRES   REMARKS
BROWNSVILLE    PTCLDY    79  76  90 SE8       29.90R
HOUSTON        PTCLDY    77  71  82 SE7       29.92R
COL. STATION   CLEAR     78  70  76 SE6       29.91F
AUSTIN         MOCLDY    80  71  74 SE6       29.88F
WACO           CLEAR     76  67  73 E6        29.90S
FORT WORTH     MOCLDY    77  63  61 S6        29.89S
WICHITA FALLS  CLEAR     73  66  78 SE9       29.89R
LUBBOCK        MOCLDY    76  66  71 SE17G23   29.91S
EL PASO        MOCLDY    80  43  26 SE8       29.92R
$$

...MARINE OBSERVATIONS...

STATION/POSITION TIME  SKY/WX   TEMP    WIND        PRES    VSBY  WAVE   SWELL
                                AIR SEA DIR/SP/G                  HT/PER HT/PER
                 (UTC)          (F)     (DEG/KT/KT) (MB)    (MI)  (FT/S) (FT/S)
PORT ARANSAS     0200            81 83  130/ 12/ 13 1013.5R
BUOY 90 E PORT A 0150            81 81  130/  8/ 10 1013.5R         2/ 4   2/ 5
BUOY 45 SE BAFFI 0150            81 82  150/ 16/ 17 1011.7R         3/ 6
BUOY 200 E PT IS 0150                                 N/A           2/ 5
BUOY 15 E GALVES 0150            80 83  170/  8/ 10 1013.5R         2/ 5   2/ 5
$$



USA.gov is the U.S. government's official web portal to all federal, state and local government web resources and services.